STARLINK-2568 (48406 NORAD) Tracking and Keplerian Element Data

This shows tracking and keplerian element data for the satellite.

Feedback or suggestion? Click here.




ElementValue
Catalog48406
NameSTARLINK-2568
Epoch Orbit365
Epoch Day214.91667824
Epoch Year2021
RAAN322.4411
Inclination53.0461
Eccentricity0.0001388
Argument of Perigee76.5016
Mean Anonmoly57.3034
Mean Motion15.11534174
Decay Rate-0.01095073
L11 48406U 21038BF 21214.91667824 -.01095073 00000-0 -69100-1 0 9993
L22 48406 53.0461 322.4411 0001388 76.5016 57.3034 15.11534174 3653

Live tracking and technical data element details for STARLINK-2568 (NORAD 48406). STARLINK-2568 can be tracked NOW for your location showing map with azimuth and elevation plus other details from your city location.

Track the satellite on the map from your city or location and see movement details for azimuth, elevation, latitude, longitude, range, height, and movement on the map or in text.







IsCatalogInMostPopularTable: catalog: 48406, numindb: 33
Update: records affected: 1



GetName: 48406 STARLINK-2568

Hit Count: updated at: Tue, 03 Aug 2021 23:40:38 GMT